loading
|
Showing default

COSMOS 83, 1573

Orbit data source: Space-Track

COSMOS 83, 1573 is a payload satellite owned by OKB-10 (CIS) in LEO that was launched on Fri, 03 Sep 1965 UTC via a KOSMOS 65S3 launch vehicle from the Tyuratam Missile And Space Complex (TTMTR). Payloads include a variety of satellites, spacecraft, and rockets equipped with specific instruments for various scientific and technological missions. These include communications satellites like Starlink; space stations such as the ISS; scientific satellites like the Hubble; Earth observation satellites from companies like Planet Labs, Umbra, and HawkEye 360; GPS; miniature CubeSats for education and research; and military/defense satellites.

Loading next visibility...
Loading greatness...
COSMOS 83 details
Identifier
1573, 1965-070D
Orbit
LEO
Last TLE update18 hours ago
Origin
Flag of CISOKB-10 (CIS)
ManufacturerOKB-10
MissionDefense Communications
Bus & MotorSTRELA-1 11F610, Unknown motor
Mass50 kg wet, 50 kg dry
Launch date (UTC)
1965-09-03 (59 years ago)
Launch vehicle
KOSMOS 65S3
Launch site
Tyuratam Missile And Space Complex (TTMTR)
Object type
Payload
Rocket body
Debris
Shape & HBRPoly, 0.8 m
Radar Cross Section0.731 m², Medium (>0.1 m² and < 1m²)

Expand to show TLE details & history

TLE from 18 hours ago
0 COSMOS 83
1 01573U 65070D   24276.79566170 -.00000086  00000-0  52899-4 0  9998
2 01573  56.0531 195.5107 0066679 332.1102  27.6233 12.41034587677943
Epoch: 2024-10-02T19:05Z
Definitive object data (Epoch: 2024-10-02T19:05:45.17Z)
Latitude-0.00003°
Longitude-102.91742°
Altitude1,456.789 km
Speed7.156 km/s
True Right ascension13h 02m 02s
True Declination0° 00' 00"
Sunlit
Object was in daylight at TLE epoch
Predictive object data (real-time)
Latitude26.4584°
Longitude55.59602°
Altitude1,555.923 km
Speed7.069 km/s
Apparent Right ascension21h 49m 45s
Apparent Declination-3° 08' 23"
Sunlit
Object is in full shadow
Predictive observer data (real-time)
Local Sidereal Time07:07:49
Azimuth304.487° NW
Elevation-38.144°
Doppler factor1
Orbital elements
Apogee1,554.589 km
Perigee1,449.501 km
Semi-major axis7,880.182 km
Eccentricity0.0066679
Inclination56.0531°
RAAN195.5107°
Arg. of periapsis332.1102°
True anomaly27.98021°
Mean anomaly27.6233°
Eccentric anomaly27.80149°
Mean motion3.10269 °/min
BSTAR0.000052899
Period116.03 mins
No data available
Loading...

COSMOS 83 Visibility forecast

Observer location: 39.9160978°, -105.1181434

COSMOS 83 is not visible in the next 10 days
Span
Click to sort rows by Start time (UTC) header in descending order
Start Az.
Max El. time (UTC)
Max El. Az.
Max El.
End time (UTC)
End Az.